Location: Newark
(13.8192°N, 100.4391°E)
Time: 07:34:51
(UTC+00:00)

LightSail 2 - Visible Passes

Search period start: 10 December 2019 00:00
Search period end: 20 December 2019 00:00
Orbit: 696 x 730 km, 24.0° (Epoch: 10 December)

Date Brightness Start Highest point End Pass type
(mag) Time Alt. Az. Time Alt. Az. Time Alt. Az.
10 Dec 5.8 11:11:42 10° NW 11:16:32 38° NNE 11:21:18 10° E visible
10 Dec 6.0 12:57:04 10° WNW 13:00:42 46° WNW 13:00:42 46° WNW visible
11 Dec 5.1 11:58:56 10° WNW 12:04:06 73° NNE 12:06:46 28° E visible
11 Dec 7.9 13:44:57 10° W 13:45:46 14° W 13:45:46 14° W visible
12 Dec 5.8 12:46:30 10° W 12:51:28 48° SSW 12:51:58 46° S visible
13 Dec 5.4 11:48:11 10° WNW 11:53:21 69° SSW 11:58:16 11° ESE visible
13 Dec 7.6 13:35:07 10° WSW 13:37:18 17° SW 13:37:18 17° SW visible
14 Dec 6.9 12:36:15 10° W 12:40:38 28° SSW 12:43:42 16° SSE visible
15 Dec 6.5 11:37:40 10° W 11:42:31 39° SSW 11:47:19 10° SE visible
15 Dec 8.0 13:27:05 10° SW 13:27:55 10° SSW 13:28:45 10° SSW visible
16 Dec 7.7 12:26:40 10° WSW 12:29:46 16° SSW 12:32:50 10° S visible
16 Dec 8.3 23:10:57 10° SSE 23:11:25 10° SSE 23:11:54 10° SSE visible
17 Dec 7.5 11:27:33 10° WSW 11:31:37 23° SSW 11:35:39 10° SSE visible
18 Dec 7.7 22:57:01 10° SSW 23:00:33 19° SSE 23:04:07 10° ESE visible
19 Dec 8.0 11:18:24 10° SW 11:20:42 13° SSW 11:23:00 10° S visible
19 Dec 7.8 22:00:11 10° S 22:02:23 13° SSE 22:04:37 10° SE visible
